EW0608 Weather Reports


time (UTC)temp
C
wind
direction
speed
KPH
gust
KPH
rain 1hr
cm
rain 24hr
cm
rain mn
cm
humidity
%
barometer
mb
20260903005406 24 5 0.0 0.0 0.00 0.00 0.00 88 1016.5
20260903004550 24 5 0.0 0.0 0.00 0.00 0.00 89 1015.2
20260903004349 25 5 0.0 0.0 0.00 0.00 0.00 88 1016.5
20260903003839 25 5 0.0 0.0 0.00 0.00 0.00 88 1016.7
20260903003352 25 5 0.0 0.0 0.00 0.00 0.00 88 1016.7
20260903003049 24 5 0.0 0.0 0.00 0.00 0.00 88 1015.3
20260903002359 25 5 0.0 1.6 0.00 0.00 0.00 88 1016.7
20260903001851 25 5 0.0 3.2 0.00 0.00 0.00 88 1016.7
20260903001545 24 5 0.0 3.2 0.00 0.00 0.00 88 1015.3
20260903001343 25 5 1.6 3.2 0.00 0.00 0.00 88 1016.7
20260903000836 25 5 0.0 3.2 0.00 0.00 0.00 88 1016.7
20260903000349 25 5 1.6 3.2 0.00 0.00 0.00 88 1016.7
20260903000038 25 5 0.0 1.6 0.00 0.00 0.00 88 1015.4
20260902235838 25 5 0.0 0.0 0.00 0.00 0.00 88 1016.8
20260902235350 25 5 0.0 0.0 0.00 0.00 0.00 87 1016.8
20260902234843 25 5 0.0 0.0 0.00 0.00 0.00 87 1017.0
20260902234538 25 5 0.0 0.0 0.00 0.00 0.00 87 1015.6
20260902234337 25 5 0.0 0.0 0.00 0.00 0.00 87 1017.0
20260902233851 25 5 0.0 0.0 0.00 0.00 0.00 87 1016.8
20260902233343 26 5 0.0 1.6 0.00 0.00 0.00 86 1016.7
20260902233034 25 5 0.0 3.2 0.00 0.00 0.00 85 1015.3
20260902232341 26 5 1.6 3.2 0.00 0.00 0.00 85 1016.8
20260902231854 26 263 0.0 0.0 0.00 0.00 0.00 86 1016.7
20260902231511 26 263 0.0 0.0 0.00 0.00 0.00 85 1015.2
20260902231407 26 263 0.0 0.0 0.00 0.00 0.00 85 1016.6
20260902230837 26 263 0.0 3.2 0.00 0.00 0.00 85 1016.7
20260902230350 26 263 0.0 3.2 0.00 0.00 0.00 83 1016.6
20260902230042 26 263 0.0 3.2 0.00 0.00 0.00 85 1015.2
20260902225840 26 263 0.0 3.2 0.00 0.00 0.00 85 1016.6
20260902225352 26 263 0.0 1.6 0.00 0.00 0.00 85 1016.8
20260902224843 26 263 0.0 4.8 0.00 0.00 0.00 84 1016.7
20260902224557 26 263 0.0 4.8 0.00 0.00 0.00 84 1015.2
20260902224355 26 263 1.6 4.8 0.00 0.00 0.00 85 1016.6
20260902223848 27 55 0.0 0.0 0.00 0.00 0.00 84 1016.6
20260902223345 27 55 0.0 0.0 0.00 0.00 0.00 82 1016.5
20260902223115 27 55 0.0 0.0 0.00 0.00 0.00 83 1015.1
20260902222858 27 55 0.0 0.0 0.00 0.00 0.00 83 1016.5
20260902222350 27 55 0.0 0.0 0.00 0.00 0.00 81 1016.4
20260902221843 27 55 0.0 0.0 0.00 0.00 0.00 82 1016.3
20260902221558 27 55 0.0 0.0 0.00 0.00 0.00 84 1015.0
20260902221356 27 55 0.0 1.6 0.00 0.00 0.00 83 1016.4
20260902220847 27 55 0.0 1.6 0.00 0.00 0.00 81 1016.3
20260902220342 27 55 0.0 3.2 0.00 0.00 0.00 81 1016.2
20260902220012 27 55 0.0 3.2 0.00 0.00 0.00 80 1014.7
20260902215851 27 55 0.0 4.8 0.00 0.00 0.00 81 1016.2
20260902215342 28 55 1.6 4.8 0.00 0.00 0.00 80 1016.2
20260902214955 27 58 0.0 1.6 0.00 0.00 0.00 80 1016.2
20260902214544 27 260 0.0 0.0 0.00 0.00 0.00 80 1014.8
20260902214342 27 260 0.0 0.0 0.00 0.00 0.00 81 1016.2
20260902213855 28 57 0.0 4.8 0.00 0.00 0.00 79 1016.4
20260902213347 28 57 1.6 4.8 0.00 0.00 0.00 78 1016.4
20260902213041 27 66 0.0 0.0 0.00 0.00 0.00 80 1015.1
20260902212841 28 66 0.0 3.2 0.00 0.00 0.00 79 1016.5
20260902212353 28 93 0.0 6.4 0.00 0.00 0.00 79 1016.4
20260902211847 28 245 1.6 6.4 0.00 0.00 0.00 79 1016.5
20260902211540 27 73 0.0 6.4 0.00 0.00 0.00 80 1015.2
20260902211339 28 73 0.0 6.4 0.00 0.00 0.00 81 1016.6
20260902210853 27 37 3.2 4.8 0.00 0.00 0.00 82 1016.7
20260902210346 28 238 0.0 6.4 0.00 0.00 0.00 80 1016.8
20260902205856 27 238 1.6 0.0 0.00 0.00 0.00 79 1016.3
20260902205346 27 30 0.0 6.4 0.00 0.00 0.00 79 1016.8
20260902204839 27 30 3.2 6.4 0.00 0.00 0.00 79 1017.0
20260902204554 27 40 1.6 4.8 0.00 0.00 0.00 79 1015.6
20260902204352 27 53 1.6 4.8 0.00 0.00 0.00 80 1017.0
20260902203842 28 22 1.6 6.4 0.00 0.00 0.00 81 1016.9
20260902203355 27 288 3.2 6.4 0.00 0.00 0.00 79 1016.8
20260902203050 27 231 0.0 6.4 0.00 0.00 0.00 78 1015.4
20260902202848 27 94 1.6 6.4 0.00 0.00 0.00 78 1016.9
20260902202343 28 291 3.2 6.4 0.00 0.00 0.00 80 1017.0
20260902201835 27 5 1.6 4.8 0.00 0.00 0.00 80 1016.9
20260902201509 27 271 0.0 4.8 0.00 0.00 0.00 79 1015.4
20260902201410 28 311 1.6 4.8 0.00 0.00 0.00 79 1016.8
20260902200841 28 347 1.6 9.7 0.00 0.00 0.00 80 1017.0
20260902200339 28 252 3.2 9.7 0.00 0.00 0.00 78 1017.2
20260902200051 27 221 1.6 6.4 0.00 0.00 0.00 79 1015.7
20260902195848 28 288 1.6 6.4 0.00 0.00 0.00 79 1017.2
20260902195341 28 23 3.2 6.4 0.00 0.00 0.00 77 1017.2
20260902194853 28 136 1.6 6.4 0.00 0.00 0.00 76 1017.0
20260902194547 28 9 0.0 4.8 0.00 0.00 0.00 75 1015.5
20260902194346 28 79 1.6 4.8 0.00 0.00 0.00 78 1016.9
20260902193836 28 225 526.3 526.3 0.00 0.00 0.00 78 1016.5
20260902193350 27 304 1.6 3.2 0.00 0.00 0.00 80 1016.9
20260902193044 27 59 0.0 3.2 0.00 0.00 0.00 81 1015.5
20260902192843 27 59 0.0 3.2 0.00 0.00 0.00 82 1016.9
20260902192356 27 59 1.6 4.8 0.00 0.00 0.00 80 1016.8
20260902191848 27 59 0.0 4.8 0.00 0.00 0.00 83 1016.9
20260902191542 27 59 0.0 6.4 0.00 0.00 0.00 81 1015.4
20260902191342 27 59 0.0 6.4 0.00 0.00 0.00 80 1016.9
20260902190914 27 350 1.6 6.4 0.00 0.00 0.00 82 1017.1
20260902190348 27 355 0.0 3.2 0.00 0.00 0.00 86 1017.3
20260902190023 26 355 0.0 3.2 0.00 0.00 0.00 87 1015.9
20260902185917 26 355 0.0 3.2 0.00 0.00 0.00 87 1017.4
20260902185349 26 320 0.0 8.0 0.00 0.00 0.00 88 1017.5
20260902184900 26 80 1.6 8.0 0.00 0.00 0.00 88 1017.6
20260902184613 25 13 1.6 8.0 0.00 0.00 0.00 88 1016.3
20260902184351 26 74 1.6 4.8 0.00 0.00 0.00 89 1017.9
20260902183845 25 314 0.0 4.8 0.00 0.00 0.00 89 1017.7
20260902183337 25 360 0.0 3.2 0.00 0.00 0.00 92 1017.6
20260902183102 25 360 0.0 3.2 0.00 0.00 0.00 91 1016.2
20260902182850 25 360 1.6 3.2 0.00 0.00 0.00 92 1017.6
20260902182341 25 360 0.0 1.6 0.00 0.00 0.00 92 1017.5
20260902181914 25 360 0.0 4.8 0.00 0.00 0.00 91 1017.6
20260902181546 25 360 0.0 4.8 0.00 0.00 0.00 92 1016.0
20260902181345 25 360 1.6 4.8 0.00 0.00 0.00 91 1017.5
20260902180838 25 46 3.2 4.8 0.00 0.00 0.00 91 1017.7
20260902180349 25 215 3.2 4.8 0.00 0.00 0.00 89 1018.0
20260902180043 25 338 1.6 9.7 0.00 0.00 0.00 87 1016.7
20260902175839 26 338 3.2 11.3 0.00 0.00 0.00 87 1018.1
20260902175411 27 339 4.8 11.3 0.00 0.00 0.00 81 1017.5
20260902174843 30 236 1.6 8.0 0.00 0.00 0.00 73 1017.3
20260902174515 31 15 1.6 8.0 0.00 0.00 0.00 72 1015.5
20260902174414 32 85 4.8 8.0 0.00 0.00 0.00 72 1017.0
20260902173846 32 129 1.6 6.4 0.00 0.00 0.00 66 1016.9
20260902173400 32 236 1.6 6.4 0.00 0.00 0.00 64 1016.9
20260902173051 31 225 3.2 6.4 0.00 0.00 0.00 65 1015.4
20260902172851 31 208 1.6 3.2 0.00 0.00 0.00 69 1017.0
20260902172405 31 208 0.0 3.2 0.00 0.00 0.00 67 1017.2
20260902171855 31 208 0.0 3.2 0.00 0.00 0.00 72 1017.3
20260902171549 31 208 0.0 1.6 0.00 0.00 0.00 69 1016.0
20260902171349 31 208 0.0 3.2 0.00 0.00 0.00 71 1017.4
20260902170840 31 208 0.0 6.4 0.00 0.00 0.00 66 1017.5
20260902170340 31 215 1.6 6.4 0.00 0.00 0.00 62 1017.6
20260902170052 31 223 0.0 4.8 0.00 0.00 0.00 64 1016.1
20260902165848 31 161 1.6 4.8 0.00 0.00 0.00 63 1017.6
20260902165341 32 111 1.6 4.8 0.00 0.00 0.00 64 1017.6
20260902164914 32 84 1.6 8.0 0.00 0.00 0.00 62 1017.7
20260902164509 32 232 1.6 8.0 0.00 0.00 0.00 59 1016.4
20260902164406 32 210 3.2 8.0 0.00 0.00 0.00 61 1017.9
20260902163837 32 237 1.6 6.4 0.00 0.00 0.00 62 1017.7
20260902163410 32 78 3.2 4.8 0.00 0.00 0.00 64 1017.8
20260902163001 32 202 1.6 6.4 0.00 0.00 0.00 63 1016.4
20260902162900 32 206 3.2 6.4 0.00 0.00 0.00 62 1018.0
20260902162352 32 194 1.6 4.8 0.00 0.00 0.00 62 1018.0
20260902161845 32 194 1.6 4.8 0.00 0.00 0.00 63 1018.0
20260902161538 31 185 1.6 4.8 0.00 0.00 0.00 63 1016.6
20260902161337 32 240 1.6 4.8 0.00 0.00 0.00 65 1018.1
20260902160850 31 118 1.6 4.8 0.00 0.00 0.00 67 1018.1
20260902160343 31 49 3.2 8.0 0.00 0.00 0.00 67 1018.2
20260902160054 31 46 1.6 8.0 0.00 0.00 0.00 66 1016.7
20260902155853 31 214 1.6 8.0 0.00 0.00 0.00 66 1018.2
20260902155347 31 44 3.2 6.4 0.00 0.00 0.00 69 1018.0
20260902154838 30 355 3.2 8.0 0.00 0.00 0.00 73 1018.0
20260902154551 30 101 3.2 8.0 0.00 0.00 0.00 72 1016.5
20260902154350 30 214 1.6 0.0 0.00 0.00 0.00 74 1017.6
20260902153842 30 177 0.0 3.2 0.00 0.00 0.00 75 1018.0
20260902153354 29 175 0.0 0.0 0.00 0.00 0.00 82 1017.9
20260902153007 28 175 0.0 0.0 0.00 0.00 0.00 83 1016.5
20260902152907 29 175 0.0 0.0 0.00 0.00 0.00 82 1018.0
20260902152339 28 175 0.0 0.0 0.00 0.00 0.00 88 1018.0
20260902151851 27 175 0.0 0.0 0.00 0.00 0.00 89 1018.1
20260902151551 27 175 0.0 0.0 0.00 0.00 0.00 89 1016.7
20260902151344 27 175 0.0 0.0 0.00 0.00 0.00 89 1018.2
20260902150837 27 175 0.0 0.0 0.00 0.00 0.00 88 1018.1
20260902150430 27 175 0.0 0.0 0.00 0.00 0.00 87 1018.1
20260902150057 27 175 0.0 0.0 0.00 0.00 0.00 87 1016.7
20260902145855 27 175 0.0 0.0 0.00 0.00 0.00 88 1018.1
20260902145347 27 175 0.0 0.0 0.00 0.00 0.00 87 1018.0
20260902144840 27 175 0.0 0.0 0.00 0.00 0.00 87 1018.0
20260902144553 26 175 0.0 0.0 0.00 0.00 0.00 88 1016.6
20260902144353 26 175 0.0 0.0 0.00 0.00 0.00 88 1018.0
20260902143846 26 175 0.0 0.0 0.00 0.00 0.00 88 1018.0
20260902143338 26 175 0.0 0.0 0.00 0.00 0.00 88 1018.0
20260902143056 26 175 0.0 0.0 0.00 0.00 0.00 87 1016.5
20260902142851 26 175 0.0 0.0 0.00 0.00 0.00 88 1018.0
20260902142343 25 175 0.0 0.0 0.00 0.00 0.00 90 1018.0
20260902141842 25 175 0.0 0.0 0.00 0.00 0.00 91 1018.0
20260902141539 24 175 0.0 0.0 0.00 0.00 0.00 91 1016.7
20260902141336 25 175 0.0 0.0 0.00 0.00 0.00 92 1018.1
20260902140848 24 175 0.0 0.0 0.00 0.00 0.00 93 1018.2
20260902140342 23 175 0.0 0.0 0.00 0.00 0.00 94 1018.2
20260902140051 23 175 0.0 0.0 0.00 0.00 0.00 94 1016.7
20260902135850 23 175 0.0 0.0 0.00 0.00 0.00 94 1018.1
20260902135343 23 175 0.0 0.0 0.00 0.00 0.00 94 1018.2
20260902134836 23 175 0.0 0.0 0.00 0.00 0.00 94 1018.1
20260902134602 22 175 0.0 0.0 0.00 0.00 0.00 94 1016.7
20260902134348 23 175 0.0 0.0 0.00 0.00 0.00 94 1018.2
20260902133840 23 175 0.0 0.0 0.00 0.00 0.00 95 1018.3
20260902133352 23 175 0.0 0.0 0.00 0.00 0.00 95 1018.3
20260902133049 22 175 0.0 0.0 0.00 0.00 0.00 95 1016.9
20260902132846 22 175 0.0 0.0 0.00 0.00 0.00 95 1018.4
20260902132339 22 175 0.0 0.0 0.00 0.00 0.00 95 1018.4
20260902131851 21 175 0.0 0.0 0.00 0.00 0.00 95 1018.3
20260902131549 21 175 0.0 0.0 0.00 0.00 0.00 95 1016.9
20260902131344 21 175 0.0 0.0 0.00 0.00 0.00 95 1018.3
20260902130837 21 175 0.0 0.0 0.00 0.00 0.00 95 1018.3
20260902130410 21 175 0.0 0.0 0.00 0.00 0.00 95 1018.3
20260902130040 21 175 0.0 0.0 0.00 0.00 0.00 95 1016.9
20260902125840 21 175 0.0 0.0 0.00 0.00 0.00 95 1018.4
20260902125352 21 175 0.0 0.0 0.00 0.00 0.00 95 1018.4
20260902124846 21 175 0.0 0.0 0.00 0.00 0.00 95 1018.5
20260902124538 21 175 0.0 0.0 0.00 0.00 0.00 95 1017.1
20260902124338 21 175 0.0 0.0 0.00 0.00 0.00 95 1018.5
20260902123910 21 175 0.0 0.0 0.00 0.00 0.00 95 1018.3
20260902123340 21 175 0.0 0.0 0.00 0.00 0.00 95 1018.2
20260902123054 20 175 0.0 0.0 0.00 0.00 0.00 95 1016.8
20260902122854 21 175 0.0 0.0 0.00 0.00 0.00 95 1018.2
20260902122345 21 175 0.0 0.0 0.00 0.00 0.00 95 1018.1
20260902121842 21 175 0.0 0.0 0.00 0.00 0.00 95 1018.1
20260902121602 20 175 0.0 0.0 0.00 0.00 0.00 95 1016.7
20260902121354 21 175 0.0 0.0 0.00 0.00 0.00 95 1018.1
20260902120847 21 175 0.0 0.0 0.00 0.00 0.00 95 1018.1
20260902120341 21 175 0.0 0.0 0.00 0.00 0.00 95 1018.1
20260902120011 20 175 0.0 0.0 0.00 0.00 0.00 95 1016.8
20260902115910 21 175 0.0 0.0 0.00 0.00 0.00 95 1018.2
20260902115341 20 175 0.0 0.0 0.00 0.00 0.00 94 1018.2
20260902114854 20 175 0.0 0.0 0.00 0.00 0.00 94 1018.2
20260902114556 20 175 0.0 0.0 0.00 0.00 0.00 95 1016.8
20260902114348 20 175 0.0 0.0 0.00 0.00 0.00 95 1018.1
20260902113017 20 175 0.0 0.0 0.00 0.00 0.00 94 1016.7
20260902111516 20 175 0.0 0.0 0.00 0.00 0.00 94 1016.7
20260902110012 20 175 0.0 0.0 0.00 0.00 0.00 94 1016.6
20260902104516 20 175 0.0 0.0 0.00 0.00 0.00 94 1016.6
20260902103011 20 175 0.0 0.0 0.00 0.00 0.00 94 1016.7
20260902101513 20 175 0.0 0.0 0.00 0.00 0.00 94 1016.7
20260902100009 21 175 0.0 0.0 0.00 0.00 0.00 94 1016.7
20260902094509 21 175 0.0 0.0 0.00 0.00 0.00 94 1016.6
20260902093006 21 175 0.0 0.0 0.00 0.00 0.00 94 1016.5
20260902091512 21 175 0.0 0.0 0.00 0.00 0.00 94 1016.5
20260902090005 21 175 0.0 0.0 0.00 0.00 0.00 94 1016.6
20260902084504 21 175 0.0 0.0 0.00 0.00 0.00 94 1016.7
20260902083002 21 175 0.0 0.0 0.00 0.00 0.00 93 1016.7
20260902081501 21 175 0.0 0.0 0.00 0.00 0.00 93 1016.5
20260902080114 21 175 0.0 0.0 0.00 0.00 0.00 93 1016.2
20260902074611 21 175 0.0 0.0 0.00 0.00 0.00 93 1016.2
20260902073110 21 175 0.0 4.8 0.00 0.00 0.00 93 1016.0
20260902071614 21 175 0.0 0.0 0.00 0.00 0.00 93 1016.4
20260902070058 21 175 0.0 0.0 0.00 0.00 0.00 93 1016.0
20260902064600 21 175 0.0 0.0 0.00 0.00 0.00 93 1016.0
20260902063059 21 175 0.0 0.0 0.00 0.00 0.00 93 1016.3
20260902061608 21 175 0.0 0.0 0.00 0.00 0.00 93 1016.3
20260902060055 21 175 0.0 0.0 0.00 0.00 0.00 93 1016.5
20260902054555 21 175 0.0 0.0 0.00 0.00 0.00 93 1016.5
20260902053055 21 175 0.0 0.0 0.00 0.00 0.00 93 1016.5
20260902051853 21 175 0.0 0.0 0.00 0.00 0.00 93 1017.9
20260902051508 21 175 0.0 0.0 0.00 0.00 0.00 93 1016.5
20260902051406 21 175 0.0 0.0 0.00 0.00 0.00 93 1017.8
20260902050857 21 175 0.0 0.0 0.00 0.00 0.00 93 1017.8
20260902050351 21 175 0.0 0.0 0.00 0.00 0.00 93 1017.8
20260902050046 21 175 0.0 0.0 0.00 0.00 0.00 93 1016.4
20260902045840 21 175 0.0 0.0 0.00 0.00 0.00 93 1017.7
20260902045353 21 175 0.0 0.0 0.00 0.00 0.00 93 1017.7
20260902044845 21 175 0.0 0.0 0.00 0.00 0.00 93 1017.7
20260902044559 21 175 0.0 0.0 0.00 0.00 0.00 93 1016.3
20260902044359 21 175 0.0 0.0 0.00 0.00 0.00 93 1017.6
20260902043852 21 175 0.0 0.0 0.00 0.00 0.00 93 1017.5
20260902043403 21 175 0.0 0.0 0.00 0.00 0.00 93 1017.4
20260902043037 21 175 0.0 0.0 0.00 0.00 0.00 93 1016.0
20260902042837 21 175 0.0 0.0 0.00 0.00 0.00 93 1017.3
20260902042409 21 175 0.0 0.0 0.00 0.00 0.00 93 1017.3
20260902041839 21 175 0.0 0.0 0.00 0.00 0.00 93 1017.2
20260902041514 21 175 0.0 0.0 0.00 0.00 0.00 93 1015.7
20260902041350 22 175 0.0 0.0 0.00 0.00 0.00 93 1017.0
20260902040841 22 175 0.0 0.0 0.00 0.00 0.00 93 1017.0
20260902040355 22 175 0.0 0.0 0.00 0.00 0.00 93 1016.9
20260902040045 21 175 0.0 0.0 0.00 0.00 0.00 93 1015.4
20260902035844 22 175 0.0 0.0 0.00 0.00 0.00 93 1016.9
20260902035337 22 175 0.0 0.0 0.00 0.00 0.00 93 1016.8
20260902034849 22 175 0.0 0.0 0.00 0.00 0.00 93 1016.6
20260902034547 21 175 0.0 0.0 0.00 0.00 0.00 93 1015.3
20260902034347 22 175 0.0 0.0 0.00 0.00 0.00 93 1016.6
20260902033841 22 175 0.0 0.0 0.00 0.00 0.00 93 1016.6
20260902033355 22 175 0.0 0.0 0.00 0.00 0.00 93 1016.6
20260902033049 21 175 0.0 0.0 0.00 0.00 0.00 93 1015.1
20260902032849 22 175 0.0 0.0 0.00 0.00 0.00 93 1016.6
20260902032341 21 175 0.0 0.0 0.00 0.00 0.00 93 1016.6
20260902031851 21 175 0.0 0.0 0.00 0.00 0.00 93 1016.5
20260902031544 21 175 0.0 0.0 0.00 0.00 0.00 93 1015.0
20260902031343 21 175 0.0 0.0 0.00 0.00 0.00 93 1016.5
20260902030836 22 175 0.0 0.0 0.00 0.00 0.00 93 1016.5
20260902030429 22 175 0.0 0.0 0.00 0.00 0.00 93 1016.5
20260902030056 22 175 0.0 0.0 0.00 0.00 0.00 93 1015.1
20260902025856 22 175 0.0 0.0 0.00 0.00 0.00 93 1016.4
20260902025347 22 175 0.0 0.0 0.00 0.00 0.00 93 1016.3
20260902024840 22 175 0.0 0.0 0.00 0.00 0.00 92 1016.2
20260902024555 22 175 0.0 0.0 0.00 0.00 0.00 92 1014.9
20260902024354 22 175 0.0 0.0 0.00 0.00 0.00 92 1016.3
20260902023846 22 175 0.0 0.0 0.00 0.00 0.00 92 1016.4
20260902023339 22 175 0.0 0.0 0.00 0.00 0.00 92 1016.5
20260902023053 22 175 0.0 0.0 0.00 0.00 0.00 92 1015.1
20260902022852 22 175 0.0 0.0 0.00 0.00 0.00 92 1016.4
20260902022345 22 175 0.0 0.0 0.00 0.00 0.00 92 1016.6
20260902021837 22 175 0.0 0.0 0.00 0.00 0.00 92 1016.8
20260902021556 22 175 0.0 0.0 0.00 0.00 0.00 92 1015.4
20260902021350 22 175 0.0 0.0 0.00 0.00 0.00 92 1016.8
20260902020843 23 175 0.0 0.0 0.00 0.00 0.00 91 1016.8
20260902020357 23 175 0.0 0.0 0.00 0.00 0.00 91 1016.8
20260902020047 22 175 0.0 0.0 0.00 0.00 0.00 91 1015.3
20260902015846 23 175 0.0 0.0 0.00 0.00 0.00 91 1016.7
20260902015359 23 175 0.0 0.0 0.00 0.00 0.00 91 1016.7
20260902014852 23 175 0.0 0.0 0.00 0.00 0.00 91 1016.6
20260902014549 23 175 0.0 0.0 0.00 0.00 0.00 91 1015.1
20260902014345 23 175 0.0 0.0 0.00 0.00 0.00 91 1016.6
20260902013841 23 175 0.0 0.0 0.00 0.00 0.00 91 1016.6
20260902013354 23 175 0.0 0.0 0.00 0.00 0.00 91 1016.6
20260902013009 23 175 0.0 0.0 0.00 0.00 0.00 90 1015.2
20260902012907 23 175 0.0 0.0 0.00 0.00 0.00 90 1016.6
20260902012339 23 175 0.0 0.0 0.00 0.00 0.00 90 1016.4
20260902011851 23 175 0.0 0.0 0.00 0.00 0.00 90 1016.4
20260902011550 23 175 0.0 0.0 0.00 0.00 0.00 90 1014.9
20260902011344 23 175 0.0 0.0 0.00 0.00 0.00 90 1016.3
20260902010837 24 175 0.0 0.0 0.00 0.00 0.00 89 1016.3
20260902010411 24 175 0.0 0.0 0.00 0.00 0.00 89 1016.2
20260902010107 23 175 0.0 0.0 0.00 0.00 0.00 89 1014.7
20260902005839 24 175 0.0 0.0 0.00 0.00 0.00 89 1016.1